Location: Scenic
(43.7797°N, 102.5549°W)
Time: 19:03:39
(UTC-07:00)

Envisat - Visible Passes

Search period start: 19 February 2018 00:00
Search period end: 01 March 2018 00:00
Orbit: 764 x 766 km, 98.2° (Epoch: 19 February)

Date Brightness Start Highest point End Pass type
(mag) Time Alt. Az. Time Alt. Az. Time Alt. Az.
19 Feb 4.0 18:11:08 10° ESE 18:15:08 24° ENE 18:19:10 10° NNE visible
19 Feb 4.0 19:49:02 10° S 19:53:53 45° W 19:58:45 10° NNW visible
20 Feb 2.9 19:12:01 10° SSE 19:17:05 84° ENE 19:22:12 10° NNW visible
20 Feb 5.9 20:54:51 10° WSW 20:56:45 12° W 20:58:40 10° WNW visible
21 Feb 3.4 18:35:49 10° SE 18:40:30 39° ENE 18:45:13 10° N visible
21 Feb 4.9 20:15:24 10° SSW 20:19:38 26° W 20:23:53 10° NW visible
22 Feb 4.3 18:00:32 10° ESE 18:04:08 20° ENE 18:07:43 10° NNE visible
22 Feb 3.6 19:37:43 10° S 19:42:42 57° W 19:47:43 10° NNW visible
23 Feb 2.9 19:00:58 10° SSE 19:05:59 67° ENE 19:11:02 10° N visible
23 Feb 5.7 20:42:32 10° SW 20:45:29 15° W 20:48:25 10° NW visible
24 Feb 3.7 18:25:00 10° SE 18:29:27 32° ENE 18:33:56 10° N visible
24 Feb 4.6 20:03:52 10° SSW 20:08:25 33° W 20:12:59 10° NNW visible
25 Feb 3.2 19:26:29 10° S 19:31:32 72° WSW 19:36:38 10° NNW visible
26 Feb 3.1 18:49:57 10° SSE 18:54:53 53° ENE 18:59:50 10° N visible
26 Feb 5.4 20:30:37 10° SW 20:34:13 19° W 20:37:50 10° NW visible
27 Feb 4.0 18:14:15 10° ESE 18:18:24 26° ENE 18:22:34 10° N visible
27 Feb 4.2 19:52:26 10° SSW 19:57:12 41° W 20:02:01 10° NNW visible
28 Feb 2.9 19:15:20 10° SSE 19:20:24 89° W 19:25:31 10° NNW visible
28 Feb 6.0 20:58:57 10° W 21:00:07 11° W 21:01:19 10° WNW visible
